Home   Weather   El Paso   Past weeks

Flag for USA Past Weather in El Paso, Texas, USA — Yesterday and Last 2 Weeks

Now
53 °F

Scattered clouds.


Feels Like: 50 °F
Forecast: 35 / 55 °F
Wind: 9 mph from Southwest

Location: El Paso International Airport

Current Time: Jan 18, 2017 at 1:28:00 pm

Latest Report: Jan 18, 2017 at 12:51 pm


Visibility: 10 mi

Pressure: 30.02 "Hg (26.18 "Hg at 1142m altitude)

Humidity: 56%

Dew Point: 38 °F

Location of El PasoLocation

Past Weather in El Paso — Graph

°F

El Paso Temperature Yesterday

Maximum temperature yesterday: 52 °F (at 1:51 pm)
Minimum temperature yesterday: 38 °F (at 11:51 pm)
Average temperature yesterday: 45 °F

High & Low Weather Summary for the Past Weeks

 TemperatureHumidityPressure
High72 °F (Jan 9, 2:51 pm)92% (Jan 18, 7:30 am)30.52 "Hg (Jan 18, 7:30 am)
Low26 °F (Jan 7, 6:51 am)12% (Jan 10, 4:51 pm)29.66 "Hg (Jan 6, 1:51 am)
Average51 °F48%30.00 "Hg
* Reported Jan 3 11:51 am — Jan 18 11:51 am, El Paso, Weather by CustomWeather, © 2017

Note: Actual official high and low records may vary slightly from our data, if they occured in-between our weather recording intervals... More about our weather records

Advertising

El Paso Weather History for the Previous 24 Hours

Scroll right to see more
 ConditionsComfort  
Time TempWeatherWind HumidityBarometerVisibility
11:51 am
Wed, Jan 18
52 °FPassing clouds.13 mph59%30.06 "Hg10 mi
10:51 am48 °FPassing clouds.8 mph71%30.11 "Hg9 mi
9:51 am43 °FPassing clouds.8 mph79%30.13 "Hg8 mi
8:51 am39 °FPassing clouds.7 mph89%30.12 "Hg8 mi
8:12 am36 °FFog.7 mph92%30.15 "Hg2 mi
7:51 am35 °FFog.7 mph92%30.11 "Hg0 mi
7:30 am35 °FFog.8 mph92%30.15 "Hg0 mi
6:51 am35 °FPassing clouds.3 mph88%30.11 "Hg7 mi
5:51 am34 °FLight fog.5 mph88%30.10 "Hg7 mi
4:51 am35 °FPassing clouds.No wind88%30.08 "Hg10 mi
3:51 am35 °FPassing clouds.5 mph88%30.08 "Hg10 mi
2:51 am38 °FClear.No wind86%30.09 "Hg10 mi
1:51 am38 °FClear.5 mph90%30.09 "Hg10 mi
12:51 am39 °FClear.No wind89%30.09 "Hg10 mi
11:51 pm
Tue, Jan 17
38 °FClear.No wind90%30.10 "Hg10 mi
10:51 pm41 °FClear.3 mph82%30.10 "Hg10 mi
9:51 pm43 °FPassing clouds.5 mph79%30.09 "Hg10 mi
8:51 pm43 °FPartly cloudy.5 mph82%30.09 "Hg10 mi
7:51 pm44 °FPassing clouds.7 mph82%30.08 "Hg10 mi
6:51 pm45 °FPassing clouds.6 mph80%30.06 "Hg10 mi
5:51 pm46 °FPassing clouds.7 mph73%30.03 "Hg10 mi
4:51 pm48 °FBroken clouds.13 mph68%30.01 "Hg10 mi
3:51 pm48 °FMostly cloudy.10 mph77%30.01 "Hg10 mi
2:51 pm49 °FLight rain. Mostly cloudy.7 mph66%29.99 "Hg10 mi
1:51 pm52 °FPartly sunny.8 mph55%29.97 "Hg10 mi
Weather by CustomWeather, © 2017

See weather overviewHow to use our weather pages